Location: Znojmo
(48.8500°N, 16.0500°E)
Time: 02:56:04
(UTC+02:00)

ISS - Pass Details

Date: 25 March 2019
Orbit: 408 x 410 km, 51.6° (Epoch: 24 April)

Event Time Altitude Azimuth Distance (km) Brightness Sun altitude
Rises 18:37:05 0° 224° (SW) 2,327 0.6 -4.3°
Reaches altitude 10° 18:39:15 10° 215° (SW) 1,469 -0.6 -4.7°
Maximum altitude 18:42:18 36° 147° (SSE) 665 -3.1 -5.2°
Drops below altitude 10° 18:45:23 10° 79° (E) 1,474 -1.6 -5.7°
Enters shadow 18:46:15 - 75° (ENE) 1,818 -1.1 -5.8°
